Overview Statistics Trail Chart Weather Telemetry Raw packets
 

This is the latest recevied weather packets stored in our database for station/object KB4MOX. If no packets are shown the sender has not sent any weather packets the latest 10 day(s).

<< 93 94 95 96 97 98 99 >>
Time Temp. Humidity Pressure Rain* Wind** Luminosity Snow
1787925231 22.78° C 98% 1017.9 hPa 0 mm - 123 W/m² -
1787924930 22.78° C 98% 1017.9 hPa 0 mm - 106 W/m² -
1787924630 22.78° C 98% 1017.9 hPa 0 mm - 131 W/m² -
1787924325 22.78° C 98% 1017.9 hPa 0 mm - 119 W/m² -
1787924021 22.78° C 98% 1017.8 hPa 0 mm - 122 W/m² -
1787923714 22.78° C 98% 1017.8 hPa 0 mm - 113 W/m² -
1787923410 22.78° C 98% 1017.8 hPa 0 mm - 100 W/m² -
1787923113 22.78° C 98% 1017.7 hPa 0 mm - 85 W/m² -
1787922800 22.78° C 98% 1017.6 hPa 0 mm - 87 W/m² -
1787922494 22.78° C 98% 1017.7 hPa 0 mm - 100 W/m² -
1787922193 22.78° C 98% 1017.6 hPa 0 mm - 88 W/m² -
1787921890 22.78° C 98% 1017.5 hPa 0 mm - 66 W/m² -
1787921585 22.78° C 98% 1017.5 hPa 0 mm - 60 W/m² -
1787921284 22.78° C 98% 1017.4 hPa 0 mm - 66 W/m² -
1787920980 22.78° C 98% 1017.5 hPa 0 mm - 68 W/m² -
1787920675 22.22° C 98% 1017.5 hPa 0 mm - 62 W/m² -
1787920374 22.22° C 98% 1017.6 hPa 0 mm - 59 W/m² -
1787920072 22.22° C 98% 1017.5 hPa 0 mm - 52 W/m² -
1787919767 22.22° C 98% 1017.4 hPa 1.78 mm - 53 W/m² -
1787919466 22.22° C 98% 1017.2 hPa 1.78 mm - 49 W/m² -
1787919162 22.22° C 98% 1017.5 hPa 0 mm - 48 W/m² -
1787918862 22.22° C 98% 1017.5 hPa 0 mm - 43 W/m² -
1787918557 22.22° C 98% 1017.4 hPa 0 mm - 38 W/m² -
1787918255 22.22° C 98% 1017.4 hPa 0 mm - 27 W/m² -
1787917959 21.67° C 98% 1017.1 hPa 0 mm - 25 W/m² -

* Rain latest hour (hover to see other rain measurements)
** Current wind speed in m/s (hover to see current wind gust speed)